GW3419 Weather Reports


Display with metric or nautical units.
time (UTC)temp
F
wind
direction
speed
MPH
gust
MPH
rain 1hr
in
rain 24hr
in
rain mn
in
humidity
%
barometer
mb
20260906083245 66 102 1.0 3.0 0.00 0.00 0.00 99 1013.4
20260906082739 66 170 3.0 4.0 0.00 0.00 0.00 99 1013.7
20260906082234 66 131 0.0 3.0 0.00 0.00 0.00 99 1013.6
20260906081730 66 143 1.0 2.0 0.00 0.00 0.00 99 1013.6
20260906081225 66 233 0.0 3.0 0.00 0.00 0.00 99 1013.6
20260906080721 66 128 1.0 2.0 0.00 0.00 0.00 99 1013.6
20260906080218 66 188 0.0 3.0 0.00 0.00 0.00 99 1013.5
20260906075712 67 214 0.0 3.0 0.00 0.00 0.00 99 1013.6
20260906075207 67 179 1.0 2.0 0.00 0.00 0.00 99 1013.7
20260906074702 67 192 0.0 3.0 0.00 0.00 0.00 99 1013.6
20260906074201 67 196 0.0 2.0 0.00 0.00 0.00 99 1013.6
20260906073656 67 134 0.0 3.0 0.00 0.00 0.00 99 1013.6
20260906073151 67 184 1.0 3.0 0.00 0.00 0.00 99 1013.6
20260906072646 67 194 2.0 3.0 0.00 0.00 0.00 99 1013.4
20260906072136 68 183 2.0 3.0 0.00 0.00 0.00 99 1013.5
20260906071633 68 161 2.0 4.0 0.00 0.00 0.00 99 1013.5
20260906071132 68 185 1.0 3.0 0.00 0.00 0.00 99 1013.5
20260906070629 68 123 3.0 4.0 0.00 0.00 0.00 99 1013.7
20260906070124 68 137 2.0 4.0 0.00 0.00 0.00 99 1013.7
20260906065624 68 208 2.0 3.0 0.00 0.00 0.00 99 1013.5
20260906065119 68 162 2.0 5.0 0.00 0.00 0.00 99 1013.7
20260906064615 68 157 0.0 5.0 0.00 0.00 0.00 99 1013.5
20260906064109 68 274 0.0 4.0 0.00 0.00 0.00 99 1013.7
20260906063605 68 177 2.0 5.0 0.00 0.00 0.00 99 1013.8
20260906063101 68 116 2.0 4.0 0.00 0.00 0.00 99 1014.1
20260906062557 68 124 2.0 5.0 0.00 0.00 0.00 99 1013.9
20260906062055 68 137 0.0 3.0 0.00 0.00 0.00 99 1013.8
20260906061552 68 117 2.0 3.0 0.00 0.00 0.00 99 1013.7
20260906061051 68 156 1.0 4.0 0.00 0.00 0.00 99 1013.8
20260906060548 68 174 2.0 3.0 0.00 0.00 0.00 99 1014.1
20260906060045 68 122 3.0 3.0 0.00 0.00 0.00 99 1013.9
20260906055541 68 144 2.0 3.0 0.00 0.00 0.00 99 1013.7
20260906055036 68 150 3.0 4.0 0.00 0.00 0.00 99 1013.8
20260906054536 68 147 0.0 3.0 0.00 0.00 0.00 99 1013.8
20260906054031 68 141 1.0 3.0 0.00 0.00 0.00 99 1013.9
20260906053527 68 97 1.0 2.0 0.00 0.00 0.00 99 1014.0
20260906053022 68 48 0.0 2.0 0.00 0.00 0.00 99 1014.1
20260906052518 68 50 0.0 3.0 0.00 0.00 0.00 99 1014.1
20260906052015 68 19 0.0 3.0 0.00 0.00 0.00 99 1013.9
20260906051510 68 50 0.0 2.0 0.00 0.00 0.00 99 1013.9
20260906051006 68 99 0.0 2.0 0.00 0.00 0.00 99 1014.1
20260906050506 68 151 2.0 3.0 0.00 0.00 0.00 99 1014.1
20260906050000 68 166 0.0 2.0 0.00 0.00 0.00 99 1014.0
20260906045459 68 147 0.0 2.0 0.00 0.00 0.00 99 1013.9
20260906044955 68 135 0.0 2.0 0.00 0.00 0.00 99 1014.1
20260906044449 68 32 1.0 2.0 0.00 0.00 0.00 99 1014.2
20260906043940 68 326 0.0 2.0 0.00 0.00 0.00 98 1014.1
20260906043435 68 34 0.0 2.0 0.00 0.00 0.00 98 1014.1
20260906042931 68 20 1.0 2.0 0.00 0.00 0.00 98 1013.9
20260906042430 68 59 1.0 2.0 0.00 0.00 0.00 98 1014.1
20260906041924 68 42 0.0 1.0 0.00 0.00 0.00 98 1013.9
20260906041420 68 129 0.0 2.0 0.00 0.00 0.00 98 1013.8
20260906040915 69 186 0.0 2.0 0.00 0.00 0.00 98 1013.8
20260906040410 69 126 1.0 2.0 0.00 0.00 0.00 98 1013.8
20260906035905 69 142 0.0 3.0 0.00 0.00 0.00 97 1014.1
20260906035401 69 99 0.0 2.0 0.00 0.00 0.00 97 1014.2
20260906034855 69 66 0.0 2.0 0.00 0.00 0.00 97 1014.2
20260906034350 69 89 0.0 2.0 0.00 0.00 0.00 97 1014.2
20260906033846 69 50 2.0 3.0 0.00 0.00 0.00 97 1013.9
20260906033345 69 37 0.0 1.0 0.00 0.00 0.00 97 1014.0
20260906032842 69 44 0.0 1.0 0.00 0.00 0.00 97 1013.9
20260906032337 69 46 0.0 1.0 0.00 0.00 0.00 97 1013.8
20260906031832 69 68 0.0 1.0 0.00 0.00 0.00 97 1013.7
20260906031328 69 230 0.0 1.0 0.00 0.00 0.00 97 1013.6
20260906030827 69 217 0.0 1.0 0.00 0.00 0.00 97 1013.6
20260906030323 69 235 0.0 2.0 0.00 0.00 0.00 97 1013.8
20260906025817 69 315 0.0 1.0 0.00 0.00 0.00 97 1013.4
20260906025311 69 300 0.0 1.0 0.00 0.00 0.00 97 1013.5
20260906024810 69 309 0.0 1.0 0.00 0.00 0.00 97 1013.5
20260906024309 69 170 0.0 1.0 0.00 0.00 0.00 97 1013.4
20260906023805 69 173 0.0 1.0 0.00 0.00 0.00 97 1013.1
20260906023300 69 283 0.0 3.0 0.00 0.00 0.00 97 1013.4
20260906022755 69 34 0.0 1.0 0.00 0.00 0.00 97 1013.0
20260906022251 70 73 0.0 2.0 0.00 0.00 0.00 97 1012.7
20260906021747 70 0 0.0 1.0 0.00 0.00 0.00 97 1012.9
20260906021240 70 140 0.0 2.0 0.00 0.00 0.00 97 1012.9
20260906020735 70 162 0.0 2.0 0.00 0.00 0.00 97 1012.7
20260906020235 70 53 0.0 2.0 0.00 0.00 0.00 97 1012.6
20260906015730 70 230 0.0 0.0 0.00 0.00 0.00 96 1012.7
20260906015228 70 135 0.0 2.0 0.00 0.00 0.00 96 1012.7
20260906014722 70 235 0.0 1.0 0.00 0.00 0.00 95 1012.5
20260906014219 71 315 0.0 1.0 0.00 0.00 0.00 95 1012.4
20260906013715 71 230 0.0 1.0 0.00 0.00 0.00 95 1012.0
20260906013214 71 147 0.0 2.0 0.00 0.00 0.00 94 1012.3
20260906012710 72 31 0.0 2.0 0.00 0.00 0.00 93 1012.3
20260906012204 72 130 0.0 2.0 0.00 0.00 0.00 93 1012.1
20260906011659 72 58 0.0 2.0 0.00 0.00 0.00 93 1012.1
20260906011154 73 157 0.0 2.0 0.00 0.00 0.00 92 1012.1
20260906010650 73 65 0.0 2.0 0.00 0.00 0.00 92 1012.0
20260906010146 73 89 0.0 3.0 0.00 0.00 0.00 92 1011.7
20260906005645 73 199 2.0 3.0 0.00 0.00 0.00 91 1011.8
20260906005144 73 196 1.0 3.0 0.00 0.00 0.00 91 1011.9
20260906004643 74 202 2.0 2.0 0.00 0.00 0.00 91 1012.0
20260906004139 74 224 1.0 3.0 0.00 0.00 0.00 90 1011.8
20260906003634 74 212 2.0 3.0 0.00 0.00 0.00 90 1011.7
20260906003130 75 156 2.0 3.0 0.00 0.00 0.00 90 1011.7
20260906002625 75 203 2.0 4.0 0.00 0.00 0.00 90 1011.6
20260906002119 75 209 2.0 3.0 0.00 0.00 0.00 89 1011.6
20260906001614 75 172 1.0 3.0 0.00 0.00 0.00 89 1011.7
20260906001109 76 75 2.0 3.0 0.00 0.00 0.00 89 1011.8
20260906000605 76 241 1.0 3.0 0.00 0.00 0.00 89 1011.7
20260906000100 76 186 0.0 5.0 0.00 0.00 0.00 88 1011.5
20260905235559 76 159 2.0 4.0 0.00 0.00 0.00 88 1011.7
20260905235054 76 10 1.0 2.0 0.00 0.00 0.00 88 1011.9
20260905234550 76 153 0.0 2.0 0.00 0.00 0.00 88 1011.6
20260905234044 76 218 2.0 3.0 0.00 0.00 0.00 88 1011.6
20260905233539 76 169 2.0 3.0 0.00 0.00 0.00 87 1011.0
20260905233039 76 180 1.0 4.0 0.00 0.00 0.00 87 1011.5
20260905232534 77 96 0.0 5.0 0.00 0.00 0.00 87 1011.0
20260905232030 77 164 2.0 3.0 0.00 0.00 0.00 87 1011.3
20260905231525 77 185 0.0 2.0 0.00 0.00 0.00 87 1011.2
20260905231021 77 111 2.0 5.0 0.00 0.00 0.00 86 1011.1
20260905230520 77 60 0.0 10.0 0.00 0.00 0.00 86 1010.9
20260905230019 77 160 1.0 4.0 0.00 0.00 0.00 86 1011.0
20260905225514 77 109 2.0 5.0 0.00 0.00 0.00 86 1010.8
20260905225009 77 221 1.0 5.0 0.00 0.00 0.00 86 1011.0
20260905224504 77 199 2.0 5.0 0.00 0.00 0.00 85 1011.0
20260905224003 77 7 1.0 4.0 0.00 0.00 0.00 85 1011.2
20260905223501 77 18 0.0 3.0 0.00 0.00 0.00 85 1011.0
20260905222956 77 276 2.0 5.0 0.00 0.00 0.00 85 1011.1
20260905222456 77 168 2.0 6.0 0.00 0.00 0.00 85 1011.0
20260905221951 77 183 2.0 6.0 0.00 0.00 0.00 84 1011.1
20260905221448 77 335 0.0 5.0 0.00 0.00 0.00 84 1011.3
20260905220944 77 17 1.0 5.0 0.00 0.00 0.00 84 1011.5
20260905220440 77 147 2.0 5.0 0.00 0.00 0.00 84 1011.5
20260905215938 77 171 1.0 7.0 0.00 0.00 0.00 84 1011.6
20260905215434 77 29 0.0 6.0 0.00 0.00 0.00 84 1011.3
20260905214931 77 215 1.0 6.0 0.00 0.00 0.00 84 1011.5
20260905214426 77 22 2.0 9.0 0.00 0.00 0.00 84 1011.7
20260905213925 77 149 3.0 7.0 0.00 0.00 0.00 84 1011.5
20260905213421 77 346 1.0 11.0 0.00 0.00 0.00 85 1011.8
20260905212917 77 165 2.0 8.0 0.00 0.00 0.00 85 1011.6
20260905212412 77 147 3.0 6.0 0.00 0.00 0.00 85 1011.8
20260905211910 78 109 2.0 8.0 0.00 0.00 0.00 84 1011.9
20260905211407 78 153 1.0 5.0 0.00 0.00 0.00 83 1012.0
20260905210902 78 77 2.0 7.0 0.00 0.00 0.00 82 1012.2
20260905210357 78 171 2.0 5.0 0.00 0.00 0.00 82 1012.1
20260905205856 78 135 2.0 4.0 0.00 0.00 0.00 82 1012.0
20260905205350 78 327 0.0 4.0 0.00 0.00 0.00 82 1012.2
20260905204844 78 172 2.0 5.0 0.00 0.00 0.00 82 1012.3
20260905204341 78 70 5.0 6.0 0.00 0.00 0.00 81 1012.4
20260905203838 78 86 0.0 5.0 0.00 0.00 0.00 82 1012.3
20260905203335 79 136 2.0 5.0 0.00 0.00 0.00 81 1012.4
20260905202825 79 145 0.0 5.0 0.00 0.00 0.00 81 1012.6
20260905202319 79 103 0.0 5.0 0.00 0.00 0.00 81 1012.4
20260905201815 78 55 2.0 4.0 0.00 0.00 0.00 82 1012.4
20260905201311 78 39 2.0 4.0 0.00 0.00 0.00 83 1012.5
20260905200805 78 61 5.0 6.0 0.00 0.00 0.00 84 1012.5
20260905200301 78 54 2.0 6.0 0.00 0.00 0.00 83 1012.5
20260905195759 78 54 2.0 6.0 0.00 0.00 0.00 83 1012.6
20260905195254 78 77 2.0 5.0 0.00 0.00 0.00 83 1012.5
20260905194749 80 98 1.0 4.0 0.00 0.00 0.00 81 1012.7
20260905194248 80 29 1.0 5.0 0.00 0.00 0.00 80 1012.6
20260905193743 80 159 0.0 4.0 0.00 0.00 0.00 79 1012.7
20260905193237 79 54 2.0 5.0 0.00 0.00 0.00 82 1012.6
20260905192727 80 58 3.0 7.0 0.00 0.00 0.00 80 1012.5
20260905192224 79 116 3.0 9.0 0.00 0.00 0.00 82 1012.2
20260905191723 79 25 6.0 8.0 0.00 0.00 0.00 81 1012.5
20260905191221 79 28 3.0 7.0 0.00 0.00 0.00 83 1012.4
20260905190720 79 49 2.0 5.0 0.00 0.00 0.00 82 1012.6
20260905190219 79 73 2.0 9.0 0.00 0.00 0.00 82 1012.9
20260905185718 80 158 4.0 6.0 0.00 0.00 0.00 82 1013.2
20260905185213 80 174 2.0 4.0 0.00 0.00 0.00 80 1012.8
20260905184713 79 61 1.0 3.0 0.00 0.00 0.00 81 1013.0
20260905184212 77 214 0.0 5.0 0.00 0.00 0.00 84 1013.2
20260905183706 78 186 1.0 3.0 0.00 0.00 0.00 85 1013.2
20260905183202 78 99 0.0 2.0 0.00 0.00 0.00 85 1013.4
20260905182700 77 174 0.0 3.0 0.00 0.00 0.00 85 1013.5
20260905182154 77 173 1.0 3.0 0.00 0.00 0.00 85 1013.1
20260905181650 77 56 4.0 5.0 0.00 0.00 0.00 85 1013.4
20260905181148 77 173 2.0 4.0 0.00 0.00 0.00 85 1013.4
20260905180643 76 113 0.0 3.0 0.00 0.00 0.00 87 1013.5
20260905180139 76 192 1.0 3.0 0.00 0.00 0.00 87 1013.5
20260905175637 75 169 0.0 2.0 0.00 0.00 0.00 89 1013.6
20260905175133 75 192 2.0 3.0 0.00 0.00 0.00 90 1013.6
20260905174629 75 225 3.0 4.0 0.00 0.00 0.00 89 1013.7
20260905174124 75 216 4.0 6.0 0.00 0.00 0.00 89 1013.6
20260905173621 75 193 0.0 5.0 0.00 0.00 0.00 89 1013.6
20260905173116 75 235 0.0 5.0 0.00 0.00 0.00 89 1013.6
20260905172614 75 225 3.0 3.0 0.00 0.00 0.00 89 1013.6
20260905172104 75 186 0.0 4.0 0.00 0.00 0.00 90 1013.6
20260905171600 75 106 2.0 3.0 0.00 0.00 0.00 90 1013.4
20260905171056 75 162 2.0 5.0 0.00 0.00 0.00 89 1013.6
20260905170553 75 153 0.0 4.0 0.00 0.00 0.00 90 1013.6
20260905170047 75 127 0.0 3.0 0.00 0.00 0.00 91 1013.5
20260905165542 74 170 1.0 5.0 0.00 0.00 0.00 91 1013.4
20260905165037 74 173 3.0 5.0 0.00 0.00 0.00 92 1013.3
20260905164532 74 147 3.0 6.0 0.00 0.00 0.00 92 1013.2
20260905164027 74 50 1.0 4.0 0.00 0.00 0.00 92 1013.4
20260905163523 74 272 0.0 4.0 0.00 0.00 0.00 92 1013.6
20260905163019 74 53 2.0 4.0 0.00 0.00 0.00 92 1013.4
20260905162514 74 31 0.0 4.0 0.00 0.00 0.00 93 1013.4
20260905162008 74 161 0.0 4.0 0.00 0.00 0.00 93 1013.8
20260905161503 74 51 2.0 5.0 0.00 0.00 0.00 93 1013.6
20260905161000 73 22 2.0 6.0 0.00 0.00 0.00 94 1013.3
20260905160459 73 52 2.0 8.0 0.00 0.00 0.00 94 1013.1
20260905155959 73 89 0.0 3.0 0.00 0.00 0.00 95 1013.2
20260905155454 73 190 2.0 3.0 0.00 0.00 0.00 95 1013.2
20260905154953 73 131 2.0 4.0 0.00 0.00 0.00 95 1013.2
20260905154448 73 10 4.0 7.0 0.00 0.00 0.00 94 1013.3
20260905153944 73 47 3.0 5.0 0.00 0.00 0.00 95 1013.3
20260905153440 73 63 3.0 7.0 0.00 0.00 0.00 95 1013.1
20260905152939 73 65 2.0 6.0 0.00 0.00 0.00 95 1013.3
20260905152439 72 40 2.0 6.0 0.00 0.00 0.00 95 1013.6
20260905151928 73 87 2.0 3.0 0.00 0.00 0.00 95 1013.3
20260905151424 72 82 1.0 4.0 0.00 0.00 0.00 95 1013.5
20260905150918 72 108 1.0 5.0 0.00 0.00 0.00 96 1013.3
20260905150413 72 62 2.0 5.0 0.00 0.00 0.00 96 1013.4
20260905145909 72 32 3.0 5.0 0.00 0.00 0.00 96 1013.0
20260905145409 72 40 3.0 4.0 0.00 0.00 0.00 96 1013.1
20260905144904 72 212 0.0 3.0 0.00 0.00 0.00 96 1013.1
20260905144359 72 56 2.0 4.0 0.00 0.00 0.00 96 1013.0
20260905143857 72 50 3.0 7.0 0.00 0.00 0.00 96 1012.9
20260905143351 72 48 0.0 5.0 0.00 0.00 0.00 97 1012.8
20260905142846 72 145 2.0 5.0 0.00 0.00 0.00 96 1012.9
20260905142344 72 30 2.0 5.0 0.00 0.00 0.00 96 1012.7
20260905141841 72 150 3.0 5.0 0.00 0.00 0.00 97 1012.7
20260905141336 71 144 2.0 6.0 0.00 0.00 0.00 97 1012.7
20260905140832 71 179 2.0 3.0 0.00 0.00 0.00 97 1012.7
20260905140332 72 54 3.0 8.0 0.00 0.00 0.00 96 1012.7
20260905135830 72 42 0.0 3.0 0.00 0.00 0.00 97 1012.6
20260905135326 72 17 0.0 5.0 0.00 0.00 0.00 97 1012.6
20260905134821 71 71 2.0 7.0 0.00 0.00 0.00 96 1012.5
20260905134315 72 67 3.0 7.0 0.00 0.00 0.00 97 1012.5
20260905133814 72 305 1.0 5.0 0.00 0.00 0.00 97 1012.6
20260905133310 71 353 1.0 6.0 0.00 0.00 0.00 97 1012.2
20260905132809 71 51 3.0 11.0 0.00 0.00 0.00 97 1012.0
20260905132306 71 154 3.0 4.0 0.00 0.00 0.00 97 1011.9
20260905131759 71 144 3.0 5.0 0.00 0.00 0.00 98 1011.9
20260905131254 71 349 0.0 5.0 0.00 0.00 0.00 99 1011.9
20260905130749 71 101 2.0 5.0 0.00 0.00 0.00 99 1011.8
20260905130248 71 37 2.0 3.0 0.00 0.00 0.00 99 1011.6
20260905125744 71 113 2.0 3.0 0.00 0.00 0.00 99 1011.6
20260905125238 71 172 1.0 6.0 0.00 0.00 0.00 99 1011.5
20260905124735 70 125 1.0 9.0 0.00 0.00 0.00 99 1011.1
20260905124231 70 138 2.0 6.0 0.00 0.00 0.00 99 1011.1
20260905123726 70 343 1.0 7.0 0.00 0.00 0.00 99 1011.0
20260905123223 70 46 3.0 4.0 0.00 0.00 0.00 99 1011.5
20260905122722 70 54 1.0 7.0 0.00 0.00 0.00 99 1011.1
20260905122217 70 35 3.0 4.0 0.00 0.00 0.00 99 1011.1
20260905121712 70 48 1.0 5.0 0.00 0.00 0.00 99 1011.1
20260905121209 70 48 4.0 5.0 0.00 0.00 0.00 99 1011.2
20260905120707 70 38 3.0 8.0 0.00 0.00 0.00 99 1011.2
20260905120201 70 113 1.0 3.0 0.00 0.00 0.00 99 1011.1
20260905115656 70 87 0.0 5.0 0.00 0.00 0.00 99 1010.9
20260905115151 69 68 2.0 5.0 0.00 0.00 0.00 99 1011.2
20260905114651 69 9 1.0 4.0 0.00 0.00 0.00 99 1011.3
20260905114149 69 69 2.0 6.0 0.00 0.00 0.00 99 1011.3
20260905113643 69 85 0.0 5.0 0.00 0.00 0.00 99 1011.2
20260905113138 69 47 3.0 9.0 0.00 0.00 0.00 99 1011.1
20260905112633 69 77 0.0 7.0 0.00 0.00 0.00 99 1010.8
20260905112130 69 28 5.0 6.0 0.00 0.00 0.00 99 1011.0
20260905111629 70 50 0.0 4.0 0.00 0.00 0.00 99 1011.3
20260905111128 70 65 3.0 5.0 0.00 0.00 0.00 99 1010.9
20260905110628 70 30 3.0 5.0 0.00 0.00 0.00 99 1010.4
20260905110123 70 24 2.0 4.0 0.00 0.00 0.00 99 1010.8
20260905105618 70 18 0.0 4.0 0.00 0.00 0.00 99 1010.8
20260905105117 70 48 0.0 4.0 0.00 0.00 0.00 99 1010.7
20260905104612 70 84 2.0 5.0 0.00 0.00 0.00 99 1010.7
20260905104112 70 59 3.0 5.0 0.00 0.00 0.00 99 1010.9
20260905103608 70 53 3.0 6.0 0.00 0.00 0.00 99 1010.9
20260905103104 70 217 1.0 4.0 0.00 0.00 0.00 99 1010.7
20260905102554 70 124 0.0 4.0 0.00 0.00 0.00 99 1010.3
20260905102051 71 113 2.0 4.0 0.00 0.00 0.00 99 1010.3
20260905101549 71 49 3.0 5.0 0.00 0.00 0.00 99 1010.1
20260905101047 71 68 4.0 6.0 0.00 0.00 0.00 99 1010.2
20260905100544 71 119 1.0 3.0 0.00 0.00 0.00 99 1010.2
20260905100043 71 195 1.0 5.0 0.00 0.00 0.00 99 1010.2
20260905095537 71 124 0.0 3.0 0.00 0.00 0.00 99 1010.3
20260905095033 71 47 2.0 3.0 0.00 0.00 0.00 99 1010.2
20260905094528 71 42 1.0 5.0 0.00 0.00 0.00 99 1010.1
20260905094027 71 143 1.0 3.0 0.00 0.00 0.00 99 1009.8
20260905093516 71 19 2.0 4.0 0.00 0.00 0.00 99 1009.6
20260905093013 71 7 0.0 4.0 0.00 0.00 0.00 99 1010.1
20260905092513 71 192 0.0 4.0 0.00 0.00 0.00 99 1009.9
20260905092009 71 31 0.0 6.0 0.00 0.00 0.00 99 1010.1
20260905091508 71 53 0.0 3.0 0.00 0.00 0.00 99 1010.2
20260905091002 71 121 1.0 5.0 0.00 0.00 0.00 99 1010.2
20260905090457 71 357 1.0 6.0 0.00 0.00 0.00 99 1010.4
20260905085956 71 94 1.0 4.0 0.00 0.00 0.00 99 1010.2
20260905085455 71 50 2.0 5.0 0.00 0.00 0.00 99 1010.0
20260905084952 71 72 2.0 4.0 0.00 0.00 0.00 99 1010.2
20260905084451 71 19 3.0 5.0 0.00 0.00 0.00 99 1010.3
20260905083951 71 59 2.0 5.0 0.00 0.00 0.00 99 1010.8